Temp
24 24 24 24 24 25 25 25 25 25 25 25 25 25 25 25 25 25 25 25 25 25 25 25 25 25 25 25 25 25 25 25 25 25 25 25 25 25 25 25 25 25 26 26 26 26 26 26 26 26 26 26 26 26 26 25 25 25 25 25 25 24 24 24 22 22 24 25 25 25 25 25 25 25 25 25 25 25 25 25 26 26 26 25 25
24 24 24 24 24 24 25 25 25 25 25 25 25 25 25 25 25 26 25 26 26 26 26 26 26 26 25 25 25 25 25 25 25 25 25 25 25 25 25 25 25 25 26 26 26 25 25 25 25 25 25 25 25 25 25 25 25 25 25 24 24 24 24 24 23 22 23 24 24 24 25 25 24 25 24 24 25 25 25 25 25 25 25 25 25
24 24 24 24 24 24 25 25 25 25 25 25 25 25 26 26 26 26 26 26 26 26 26 26 26 26 26 26 25 25 25 25 26 26 26 26 26 26 26 26 26 26 25 25 25 25 25 25 24 24 24 24 25 25 25 25 25 25 25 24 24 24 24 24 23 23 22 23 24 24 24 24 24 24 24 24 24 25 25 24 24 25 24 24 24
24 24 24 24 24 24 25 25 25 25 25 25 25 25 26 26 26 26 26 26 26 26 26 26 26 26 26 26 26 26 26 26 26 26 26 26 26 26 26 26 26 26 25 25 25 25 25 25 24 24 24 24 25 25 25 25 25 25 25 25 24 24 24 24 24 23 23 23 24 24 24 23 24 24 24 24 24 24 24 24 24 24 24 24 24
24 24 24 24 24 25 25 25 25 25 25 25 25 26 26 26 26 26 26 27 26 26 27 27 26 26 26 26 26 26 26 26 26 26 26 26 26 26 26 26 26 25 25 25 25 25 25 25 24 24 24 24 24 25 25 25 25 24 24 25 25 24 24 24 24 23 23 23 24 24 23 23 23 23 23 23 24 24 24 24 23 23 23 23 23
24 24 24 24 24 25 25 25 25 25 25 25 26 26 26 26 26 27 27 27 27 27 27 27 27 27 27 27 26 26 27 26 26 27 26 26 26 26 26 26 26 25 25 26 26 26 25 25 25 24 24 24 24 25 25 25 24 24 25 25 25 24 24 24 24 23 23 23 24 23 23 23 23 23 23 23 23 23 23 23 23 23 23 23 23
25 24 25 25 25 25 25 25 25 25 25 25 26 26 26 27 27 27 27 27 27 27 27 27 27 27 27 27 27 27 27 27 27 27 27 26 26 26 26 26 26 25 25 26 26 25 25 25 25 25 24 24 25 24 24 24 24 24 24 24 24 23 23 24 24 23 23 23 23 23 23 23 23 23 23 23 23 23 23 23 23 22 22 22 22
25 25 25 25 25 25 25 25 25 25 25 26 26 26 26 27 27 27 27 27 27 27 27 27 27 27 27 27 27 27 27 27 27 27 26 26 26 26 26 26 26 25 25 26 25 25 25 25 24 24 24 24 24 24 24 24 24 24 24 24 23 23 23 23 23 23 23 23 23 23 23 23 22 22 22 22 22 23 23 22 22 22 22 22 22
25 25 25 25 25 26 25 25 26 26 26 26 26 26 26 27 27 27 27 27 27 28 28 28 27 27 27 27 27 27 27 27 27 26 26 26 26 26 26 26 26 25 25 25 25 25 25 25 24 24 24 24 24 24 24 24 23 24 24 24 23 23 23 23 23 23 23 22 22 22 22 22 22 22 22 22 22 22 23 22 22 22 22 22 22
25 25 25 25 26 26 26 26 26 26 26 26 26 27 27 27 27 27 27 28 27 27 28 27 27 27 27 27 27 27 27 27 27 26 26 26 26 26 26 26 26 25 25 25 25 25 25 25 24 24 24 24 24 24 24 24 23 23 24 23 22 22 22 23 23 23 23 22 22 22 22 22 23 22 22 22 22 22 22 22 22 22 22 22 22
25 25 25 25 26 26 26 26 26 26 27 27 27 27 27 27 27 27 28 28 27 27 27 27 27 27 27 27 27 27 27 26 26 26 26 26 26 26 26 26 26 25 25 25 25 25 25 25 24 24 24 23 23 23 23 23 23 23 23 23 22 22 22 23 23 23 22 22 22 22 22 22 22 22 22 22 22 22 22 22 22 22 22 22 22
25 25 25 25 26 26 26 26 27 27 27 27 27 26 26 27 27 27 27 27 27 27 27 27 27 27 27 27 27 26 26 26 26 26 26 26 26 26 25 25 25 25 25 25 25 25 24 24 24 24 23 23 23 23 23 22 22 22 23 23 22 22 22 22 22 22 22 22 22 22 22 22 22 22 22 22 21 22 22 22 22 22 21 21 21
25 25 25 25 26 26 26 26 26 26 27 27 27 26 26 27 27 27 27 27 26 27 27 27 27 27 27 26 26 26 26 26 26 26 26 25 25 25 25 25 25 25 25 25 25 24 24 24 24 24 24 23 23 22 22 22 22 22 22 23 22 22 22 22 22 22 22 22 22 22 22 22 21 21 21 21 21 21 22 22 21 21 21 21 21
24 24 25 25 26 26 26 26 26 26 26 26 26 26 26 26 26 27 27 27 27 27 27 27 26 26 26 26 26 26 26 26 26 25 25 25 25 25 25 25 25 25 25 24 24 24 24 24 24 24 24 23 23 22 22 23 23 22 22 22 22 22 21 21 21 21 22 22 22 22 21 21 21 21 21 21 21 21 21 21 21 21 21 21 21
24 24 24 25 25 25 25 25 25 26 26 26 26 26 26 26 26 26 26 26 26 27 26 26 26 26 26 26 25 25 25 25 25 25 25 25 25 25 25 24 24 24 24 24 24 23 23 23 23 23 23 23 23 22 22 22 22 22 22 22 22 21 21 21 21 21 22 22 22 21 21 21 21 21 20 21 21 21 21 21 20 21 21 20 20
23 24 24 25 25 25 25 25 25 25 25 24 25 25 25 25 26 25 25 25 26 26 26 26 26 26 25 25 25 25 24 24 24 24 24 24 24 24 24 24 24 24 24 24 23 23 23 23 23 23 23 23 22 22 22 22 22 21 21 21 20 20 20 21 21 21 21 21 21 21 21 21 21 20 20 20 20 20 20 20 20 21 21 20 19
21 22 23 23 23 23 23 23 23 23 22 21 21 22 23 24 25 25 25 25 25 25 25 25 25 25 24 24 24 24 24 23 24 24 24 24 24 24 23 23 23 23 23 23 23 23 22 22 22 22 22 22 21 21 21 22 22 21 21 21 20 19 19 20 20 21 21 21 21 21 20 20 20 20 20 20 20 20 21 20 20 20 20 20 19
19 20 21 21 21 21 21 22 21 20 20 21 22 22 22 23 24 24 24 24 24 24 24 24 24 23 23 23 23 23 23 23 23 23 23 23 24 23 23 22 23 23 23 23 22 22 22 21 21 21 21 22 21 21 21 21 22 21 21 20 19 19 19 20 20 20 20 20 20 20 20 19 19 20 20 20 20 20 20 20 19 20 20 19 19
19 19 20 20 20 20 22 22 21 20 21 22 23 23 22 22 23 23 23 23 23 23 23 23 22 22 22 22 22 22 22 22 22 22 22 22 23 23 22 22 22 22 22 22 21 21 21 21 21 21 21 21 21 21 20 20 21 21 20 20 19 19 19 20 20 20 20 19 19 19 19 19 19 19 19 19 19 19 19 19 19 19 19 19 18
20 20 20 19 19 19 21 21 20 20 21 22 22 21 21 22 22 22 22 22 22 22 21 21 21 21 21 21 21 21 21 21 21 22 22 22 22 22 22 22 22 22 21 21 21 21 20 20 20 20 20 20 20 20 20 20 19 19 19 19 19 19 20 19 19 19 19 18 18 18 18 18 18 18 18 18 18 18 18 18 18 18 18 18 18
19 19 20 20 19 19 20 19 19 20 21 21 21 21 21 21 21 21 21 21 21 20 20 20 20 20 20 20 20 19 20 20 20 21 21 21 22 21 21 21 21 21 21 21 20 20 20 20 20 20 20 20 20 20 20 20 20 19 19 19 19 19 19 19 18 18 18 17 17 17 17 17 17 18 18 18 17 17 17 17 17 17 17 17 17
19 19 20 20 19 19 19 19 19 20 21 21 20 20 20 20 20 20 20 20 20 20 20 19 19 19 19 19 19 19 19 19 19 20 20 21 21 21 21 21 21 20 20 20 20 20 20 20 20 20 20 19 19 19 19 20 20 20 20 19 19 19 18 18 18 17 17 17 17 17 17 17 17 17 17 17 17 17 17 17 17 16 16 16 16
19 19 19 19 19 19 19 19 19 20 20 20 20 20 20 20 20 20 20 20 20 20 19 18 18 18 18 18 18 18 19 19 19 19 19 19 19 20 20 20 20 20 20 20 20 20 20 20 20 20 19 19 19 19 19 19 19 19 19 19 18 18 18 17 17 17 17 17 17 17 17 17 17 17 17 17 17 17 17 17 17 17 16 16 17
19 19 19 19 19 19 19 19 19 19 20 20 20 20 20 20 19 19 20 20 19 19 19 18 16 16 17 18 18 18 19 19 19 19 19 19 18 18 19 19 20 20 20 20 20 20 20 19 19 19 19 19 18 18 18 18 18 18 18 18 18 17 17 17 17 17 17 17 17 17 17 17 17 17 17 17 17 17 17 17 17 16 16 16 17
19 19 18 19 19 19 19 19 19 19 19 19 19 20 19 19 19 19 19 19 18 18 18 17 16 15 16 17 17 17 17 18 19 19 19 19 18 18 18 19 19 19 19 19 19 19 19 19 18 18 18 18 18 18 18 18 18 18 18 18 18 18 17 17 17 17 17 17 17 17 17 17 17 17 16 16 16 16 17 17 17 16 16 16 16
18 18 18 18 18 19 19 19 18 18 19 19 19 19 19 18 18 18 18 18 17 17 16 16 16 16 16 16 15 15 16 17 17 17 18 18 17 17 17 18 18 18 18 18 18 18 18 18 17 17 17 17 17 17 17 17 17 18 18 18 18 18 18 17 17 17 17 17 17 17 17 17 17 16 16 16 16 16 16 16 16 16 16 16 16
18 17 18 18 18 18 18 18 18 18 18 19 19 18 18 18 18 18 17 17 17 17 16 16 16 16 16 15 14 14 15 15 16 16 17 17 17 16 17 17 17 17 17 17 17 17 17 17 17 17 17 17 17 17 17 17 17 18 18 18 18 18 18 18 17 17 17 17 18 17 17 17 16 16 16 16 16 15 15 16 16 16 16 16 15
17 17 17 17 17 17 17 17 17 17 17 18 18 17 17 17 17 17 17 17 17 17 16 16 15 16 15 15 14 14 14 15 15 15 16 16 16 16 16 16 16 16 16 16 16 16 16 16 16 16 16 16 17 17 17 17 17 18 18 18 18 18 18 18 18 18 18 18 17 17 17 17 16 16 16 16 15 15 15 15 15 15 15 15 15
17 17 17 17 17 17 17 17 17 17 17 17 17 16 16 16 17 16 16 16 16 16 16 16 15 15 15 15 15 15 15 15 15 15 15 15 15 15 15 15 15 15 15 15 16 16 16 16 16 16 16 16 17 17 17 17 17 18 18 18 18 18 18 18 18 18 18 17 17 17 17 17 16 16 16 16 15 15 15 15 15 15 15 15 14
16 16 16 16 16 16 16 16 16 17 17 17 17 16 16 16 16 16 16 16 16 16 16 16 16 16 16 16 16 16 16 16 16 16 16 16 16 16 16 15 15 16 15 16 16 16 16 16 16 16 17 17 17 17 17 17 17 17 17 18 18 18 18 18 18 18 17 17 17 17 17 16 16 16 16 15 15 15 15 15 15 15 14 14 14
16 16 16 16 16 17 16 16 16 17 17 17 17 17 16 16 16 16 16 16 16 16 16 16 16 16 16 16 16 16 16 16 16 16 16 16 16 16 16 16 16 16 16 16 16 16 17 17 17 17 17 17 17 17 17 18 18 18 18 18 18 18 18 18 18 18 17 17 17 17 16 16 16 16 15 15 15 15 15 15 14 14 14 13 13
17 17 17 17 17 17 17 17 17 17 17 17 17 17 17 17 16 16 16 16 16 16 16 16 16 16 16 16 17 17 16 16 16 16 16 16 16 17 17 16 16 16 17 17 17 17 17 17 18 18 18 18 18 18 18 18 18 18 18 18 18 18 18 18 18 18 17 17 17 17 16 16 16 16 15 15 15 15 14 14 14 13 13 13 12
18 17 17 17 17 17 17 17 17 17 17 17 17 17 17 17 17 16 16 16 16 16 16 16 16 16 16 16 16 16 16 16 16 15 16 16 16 16 17 17 16 17 17 17 17 17 18 18 18 18 19 19 19 18 18 18 18 18 18 18 18 18 18 17 18 18 17 17 17 16 16 16 16 15 15 15 14 14 14 13 13 13 13 12 12
18 18 18 18 18 18 18 18 17 17 18 18 18 18 18 17 17 17 16 16 16 16 16 16 16 17 17 17 17 16 16 16 16 15 16 16 16 16 16 17 17 17 17 18 18 18 18 18 18 19 19 19 19 19 19 18 18 17 18 18 18 18 17 17 17 17 17 17 16 16 16 15 15 15 15 14 14 13 13 13 12 12 12 12 11
19 18 18 18 18 18 18 18 18 18 18 18 18 18 18 18 17 17 17 17 16 16 16 17 17 17 17 17 17 17 16 16 16 16 16 16 16 16 16 17 17 17 18 18 18 18 18 18 18 18 19 19 19 19 18 18 18 18 18 18 18 17 17 17 17 17 16 16 16 15 15 15 15 15 14 14 13 13 13 12 12 12 12 11 11
19 19 19 19 19 19 19 19 18 18 18 18 18 18 18 18 18 17 17 17 17 17 17 17 17 17 17 17 17 17 16 16 16 16 16 16 16 16 16 17 17 18 18 18 18 18 18 18 18 18 19 19 18 18 18 18 18 18 18 18 18 17 17 17 17 16 16 16 15 15 15 14 14 14 14 13 13 12 12 12 12 11 11 11 11
19 19 19 19 19 19 19 19 19 19 19 19 19 19 19 18 18 18 18 18 18 18 17 17 17 17 17 17 17 17 17 17 16 16 16 16 16 16 17 17 17 18 18 18 18 18 18 18 18 19 19 19 19 18 18 18 18 18 18 18 17 17 17 16 16 16 15 15 15 15 14 14 14 14 13 13 12 12 12 11 11 11 11 10 10
19 19 19 19 19 20 20 20 20 20 19 19 19 19 19 19 18 19 18 18 18 18 18 18 18 18 18 18 18 18 18 17 17 17 17 17 17 17 17 18 18 18 18 18 18 18 18 18 19 19 19 19 19 19 18 18 18 18 17 17 17 16 16 16 15 15 15 15 14 14 14 14 13 13 13 13 12 12 11 11 11 11 10 10 10
20 20 20 20 20 20 20 20 20 20 20 20 20 20 20 19 19 19 19 19 19 19 19 19 18 18 18 18 18 18 18 18 18 18 17 17 18 18 18 18 18 18 18 18 18 18 18 18 18 18 18 18 18 18 18 17 17 17 16 16 16 16 16 15 15 15 15 15 14 14 14 13 13 13 12 12 12 11 11 11 11 10 10 10 10
19 20 20 20 20 20 20 20 19 19 20 20 20 20 20 20 19 19 19 19 19 19 19 19 19 19 18 18 18 19 19 18 18 18 18 18 18 18 18 18 18 18 18 18 17 18 18 18 18 18 17 17 17 17 17 16 16 16 16 16 16 15 15 15 15 15 14 14 14 13 13 13 13 12 12 12 11 11 11 10 10 10 10 10 10
19 19 19 20 20 20 19 19 19 19 20 19 19 20 19 19 20 19 19 19 19 19 19 19 19 19 19 18 18 18 19 18 18 18 18 18 18 18 18 18 18 18 18 18 17 17 17 17 17 17 17 17 16 16 16 16 16 16 16 15 15 15 15 15 14 14 14 14 14 13 13 12 12 12 12 11 11 11 10 10 10 10 10 9 9
19 19 19 19 19 20 19 19 19 19 19 19 19 19 19 19 19 19 19 19 19 19 19 19 19 19 19 19 18 18 18 18 18 18 18 18 18 18 18 18 18 18 18 18 17 17 17 17 17 17 17 16 16 16 16 16 16 16 15 15 15 15 14 14 14 14 14 13 13 12 12 12 12 11 11 11 10 10 10 10 10 9 9 9 8
19 19 19 19 19 19 19 19 19 19 19 19 19 19 19 19 19 19 19 19 19 19 19 19 19 19 19 19 18 18 18 18 18 18 18 18 17 18 18 18 18 18 18 18 17 17 17 17 16 16 16 16 16 16 16 16 15 15 15 15 15 15 14 14 14 13 13 13 12 12 11 11 11 11 10 10 10 10 10 9 9 9 9 8 8
19 19 19 19 19 19 19 19 19 19 19 19 19 19 19 19 19 19 19 19 19 19 19 19 19 19 19 19 19 18 18 18 18 18 18 17 17 18 18 18 18 18 18 17 17 17 17 16 16 16 16 16 15 15 15 15 15 15 15 15 14 14 14 14 13 13 13 12 12 11 11 11 11 10 10 10 10 9 9 9 9 8 8 8 8
18 19 19 19 19 19 19 19 19 19 19 19 19 19 19 19 19 19 19 19 19 19 18 18 19 19 19 19 19 18 18 18 18 17 17 17 17 17 18 18 18 17 17 17 17 16 16 16 16 16 15 15 15 15 15 15 14 14 14 14 14 13 13 13 12 12 12 12 11 11 11 11 10 10 10 9 9 9 9 8 8 8 8 8 7
18 18 18 18 18 18 18 18 18 18 18 18 18 18 18 18 18 18 18 18 18 18 18 18 18 18 18 18 18 18 18 17 17 17 16 16 17 17 17 17 17 17 17 17 16 16 16 15 15 15 15 15 14 14 14 14 14 13 13 13 13 13 12 12 11 11 11 11 11 10 10 10 10 9 9 9 9 9 8 8 8 8 8 7 7
17 17 17 17 17 17 17 17 18 18 17 17 17 17 17 17 17 17 17 17 17 17 18 18 18 18 18 18 17 17 17 16 17 17 16 16 16 16 16 17 17 16 16 16 15 15 15 15 15 15 14 14 14 14 14 13 13 13 12 12 12 12 11 11 11 10 10 10 10 10 10 9 9 9 9 8 8 8 8 8 7 7 7 7 7
17 17 17 17 17 17 17 17 17 17 17 17 16 16 16 16 16 16 17 17 17 17 17 17 17 17 17 17 16 16 16 16 16 16 16 16 16 16 16 16 16 16 15 15 14 14 14 14 14 14 13 13 13 13 13 12 12 12 11 11 11 10 10 10 10 10 10 10 9 9 9 9 9 8 8 8 8 7 7 7 7 7 7 7 7
17 16 16 16 16 16 16 16 16 16 16 16 16 16 16 16 16 16 16 16 16 16 16 16 16 16 16 16 16 16 16 16 16 16 16 16 16 15 15 15 15 15 15 14 14 14 14 13 13 13 13 13 12 12 12 11 11 11 10 10 10 10 10 10 10 10 9 9 8 8 8 8 8 8 7 7 7 7 7 7 7 7 7 7 7
16 16 16 16 16 15 15 15 15 15 15 15 15 15 15 15 15 15 15 15 15 15 15 15 15 15 15 15 15 15 15 15 15 15 15 15 15 15 15 15 15 14 14 13 13 13 13 12 12 12 12 12 12 11 11 10 10 10 10 10 10 10 10 10 10 9 9 8 8 7 7 7 7 7 7 7 7 7 7 7 7 7 7 7 7
16 16 15 15 15 15 15 15 15 15 15 15 15 15 15 15 15 14 14 14 14 14 15 15 15 15 15 15 15 15 14 14 14 14 14 14 14 14 14 14 13 13 13 13 12 12 12 11 12 12 11 11 11 10 10 10 10 9 9 9 9 9 9 9 9 8 8 7 7 7 7 7 7 7 7 7 7 7 7 7 7 7 7 7 7
Height
813 814 816 818 820 821 822 823 824 826 827 828 829 830 831 831 832 833 834 835 836 837 838 839 839 841 841 842 843 844 845 845 846 846 846 847 847 847 847 847 847 847 847 848 848 848 848 848 848 847 847 847 846 846 846 846 846 846 846 845 844 843 843 843 843 842 841 841 841 841 841 840 840 840 839 839 839 839 838 837 837 836 837 837 837
811 813 815 817 818 819 820 822 823 824 825 826 827 828 829 830 831 832 833 833 834 835 836 837 838 839 840 841 842 843 843 844 844 845 845 845 845 845 846 846 846 847 847 847 847 847 847 847 846 846 846 845 845 844 843 843 843 843 844 844 844 843 843 842 842 841 840 840 840 841 840 840 839 839 839 839 839 838 838 837 836 836 837 837 837
809 811 814 815 816 818 819 820 821 822 823 824 825 826 827 828 829 830 831 832 833 834 834 835 836 837 838 839 840 841 841 842 842 843 843 843 843 844 844 845 845 846 846 846 845 845 845 845 844 843 843 843 842 841 841 840 840 840 840 841 842 842 842 842 841 841 840 839 839 839 840 839 839 838 838 838 838 837 837 837 836 836 837 837 837
808 810 812 814 815 817 818 819 820 820 821 822 823 824 825 826 827 828 829 830 831 832 833 833 835 836 837 837 838 839 839 840 840 840 841 841 842 842 843 843 844 844 843 843 843 843 843 843 843 842 841 841 840 839 839 838 838 838 838 839 840 840 841 841 840 840 840 839 838 838 838 838 838 838 838 837 837 837 837 837 836 836 836 836 836
805 807 809 812 813 815 816 817 818 818 819 820 820 822 823 824 825 826 827 828 829 830 831 831 832 833 834 835 836 836 837 837 838 838 838 839 840 841 841 842 842 841 840 840 840 840 840 841 841 841 840 839 839 838 837 837 837 837 837 837 837 838 839 839 840 840 840 839 838 838 838 837 837 837 837 837 837 836 836 836 836 835 835 835 835
802 804 807 809 811 813 814 815 816 816 817 818 818 820 820 821 822 823 824 825 826 827 828 829 830 831 832 832 833 834 835 835 836 836 836 837 838 839 840 840 840 839 838 838 838 838 838 839 839 839 839 838 837 836 837 837 838 837 837 836 836 836 837 838 839 840 839 839 838 838 837 837 837 837 837 836 836 836 836 835 835 835 834 834 834
797 800 803 806 808 810 811 812 814 815 815 816 817 818 818 819 820 821 822 823 824 825 826 827 828 829 830 831 832 833 834 835 835 835 835 836 837 838 838 838 838 837 837 837 837 837 837 838 838 838 837 837 836 836 836 836 837 837 837 836 836 836 837 838 838 839 839 839 838 838 837 837 837 837 836 836 835 835 835 834 834 834 834 834 834
792 795 799 802 805 806 808 810 811 813 814 815 816 816 817 818 818 819 820 820 821 822 823 824 825 827 828 830 831 832 833 834 834 835 835 836 836 836 837 836 835 835 835 835 835 836 836 836 836 836 836 836 836 836 836 836 836 836 836 836 836 836 837 837 837 837 838 838 838 838 837 837 836 836 836 835 835 834 834 834 834 833 833 833 833
790 791 794 798 801 803 806 808 809 811 812 812 814 814 815 816 816 816 817 818 819 819 820 821 822 824 826 828 829 830 831 831 832 833 833 834 834 835 834 834 833 833 833 833 834 834 834 834 834 835 835 835 835 835 835 836 836 836 836 836 836 837 837 836 836 836 837 837 837 838 837 837 836 836 835 835 835 834 834 834 834 833 833 833 832
788 789 791 794 797 800 803 805 807 808 809 809 810 811 812 813 814 814 815 815 816 817 818 819 821 822 824 826 827 828 828 828 828 829 830 831 832 832 832 832 831 831 831 831 832 832 832 832 833 833 833 833 833 833 834 834 835 836 837 837 837 838 838 837 836 836 836 836 837 837 836 836 835 835 835 834 834 834 833 833 833 833 833 832 831
786 787 788 790 794 797 799 801 803 804 805 806 807 808 809 810 811 812 812 813 814 815 816 818 819 821 822 823 824 825 825 825 825 826 827 828 829 829 829 829 829 829 830 829 830 830 830 831 831 831 831 831 832 832 833 833 834 834 834 834 835 836 836 836 835 835 835 835 835 836 835 835 835 835 834 834 833 833 833 833 832 832 832 831 831
783 785 786 788 791 793 795 797 798 800 801 802 804 805 806 807 807 809 809 810 812 813 814 816 817 819 820 821 822 822 822 823 823 824 824 825 826 826 826 827 827 827 827 827 828 828 829 829 829 829 830 830 831 831 832 832 832 831 831 831 832 832 833 833 833 833 834 834 834 834 834 834 834 834 834 833 833 833 832 832 831 831 831 830 830
780 782 784 786 788 790 792 793 794 796 797 799 801 802 803 804 805 806 807 809 810 811 812 814 815 816 817 818 819 820 820 821 821 822 822 823 824 824 824 825 824 825 825 825 826 826 827 827 827 827 828 828 829 830 830 830 830 829 830 830 830 831 831 831 831 831 831 832 833 833 833 833 833 833 833 833 832 832 831 831 831 830 830 829 829
778 779 781 783 785 787 789 790 792 794 795 797 798 799 801 802 804 805 806 807 809 810 811 812 813 814 815 816 817 817 818 819 819 820 821 821 822 822 823 823 823 823 823 823 824 824 825 825 825 826 826 827 828 828 828 828 828 829 829 829 829 829 830 829 829 830 830 830 831 831 831 832 832 832 832 832 831 831 831 830 830 829 829 828 828
775 777 778 780 782 783 785 787 789 791 793 795 797 798 800 801 803 804 805 806 807 808 809 810 811 812 813 814 815 815 816 816 817 818 819 820 820 821 821 821 821 821 821 821 822 823 823 824 824 825 825 826 826 826 826 826 827 828 828 828 828 829 829 829 829 829 829 829 830 830 830 830 831 830 831 830 830 830 830 829 829 828 828 827 827
773 774 776 777 779 780 782 784 786 789 791 793 795 796 798 800 802 803 804 805 806 807 807 808 809 810 811 812 813 813 814 814 815 817 818 818 819 819 820 820 820 820 820 820 821 821 822 822 823 823 824 824 825 824 824 824 825 826 826 826 827 828 829 830 829 829 829 829 828 829 829 829 829 829 829 829 829 829 828 828 828 827 827 827 827
776 776 776 777 778 779 780 782 784 787 790 794 797 799 799 800 800 801 802 804 804 805 806 807 808 809 809 810 811 812 813 813 814 815 816 817 818 818 819 819 819 819 819 819 820 820 820 821 821 822 822 823 823 823 822 822 822 822 823 824 826 828 829 830 830 829 829 828 828 828 828 828 828 828 828 828 828 828 827 827 827 826 826 826 826
781 781 780 780 780 781 782 784 786 788 791 795 799 800 800 800 800 800 802 803 804 805 806 806 807 808 809 810 810 811 812 812 813 814 815 816 816 817 818 818 818 818 818 819 819 818 819 819 819 820 821 821 822 822 822 821 820 820 821 822 823 826 828 829 828 828 828 828 827 827 827 828 828 828 828 828 827 827 826 826 826 826 825 825 825
782 783 783 782 780 782 784 785 787 788 790 792 794 796 798 799 800 800 802 802 803 804 805 806 807 807 808 809 809 810 811 812 813 814 815 816 816 816 817 817 817 818 818 818 818 817 818 818 818 819 820 820 821 821 821 820 820 819 820 821 822 824 827 827 827 828 827 827 827 827 827 828 828 829 828 828 827 827 827 826 826 826 825 825 825
779 781 783 782 782 784 785 785 787 789 791 792 793 796 798 799 800 800 801 802 802 803 804 805 805 806 806 807 807 809 810 812 813 814 814 815 815 815 816 816 816 817 817 817 817 817 817 817 817 818 819 819 820 820 820 820 820 820 820 821 822 823 824 826 827 827 827 826 827 827 827 828 828 829 829 829 828 828 828 827 827 827 826 826 826
777 778 780 781 783 784 784 785 788 791 793 794 795 797 799 799 800 800 800 801 802 803 804 804 804 805 805 806 807 808 810 811 812 813 813 814 814 815 815 815 815 816 817 817 817 816 816 817 816 817 817 818 818 818 818 819 819 819 819 820 821 822 822 824 826 828 829 829 829 828 828 829 829 830 830 830 829 829 829 829 829 828 827 827 827
777 778 778 779 782 783 783 786 788 790 792 793 795 798 798 799 800 800 800 801 801 802 804 804 803 803 804 805 806 807 809 810 811 812 813 814 814 814 814 815 815 815 815 815 815 816 816 816 815 815 816 816 817 817 818 818 818 818 818 819 820 820 821 824 826 829 831 832 831 829 829 829 830 831 831 830 830 830 830 830 830 830 829 828 828
778 778 777 779 781 783 784 786 788 791 792 793 794 795 796 797 800 801 801 800 800 801 802 803 803 802 802 803 805 806 807 809 810 811 813 814 815 815 815 815 815 815 815 815 815 815 814 814 814 814 815 815 816 817 818 818 817 817 817 818 819 820 822 825 828 830 832 832 831 830 830 830 831 832 832 832 832 832 832 831 831 831 830 829 828
779 779 779 780 781 783 785 787 790 792 794 793 793 793 794 797 799 800 800 799 800 801 801 802 803 803 801 801 803 805 806 807 808 810 812 813 815 815 816 816 816 816 815 815 814 814 814 813 814 814 815 815 816 817 818 818 818 817 818 819 819 820 823 826 828 830 832 832 831 830 831 831 832 832 833 833 833 833 833 833 832 832 831 830 829
780 780 782 783 784 785 787 790 792 793 794 794 793 794 796 798 799 798 798 798 799 800 800 801 803 804 802 801 804 806 806 806 807 808 810 811 812 814 816 817 817 816 815 815 814 814 814 814 814 815 815 816 816 816 817 819 819 819 819 820 821 822 824 826 829 830 831 832 832 832 832 832 833 833 834 835 835 834 834 834 833 833 832 831 830
781 783 784 785 786 788 789 791 793 794 795 795 796 796 797 798 797 797 797 797 797 799 800 800 803 804 802 802 805 807 807 807 808 808 809 810 812 814 816 817 817 816 815 815 815 815 815 815 816 816 816 817 817 818 819 820 821 821 821 821 822 823 825 827 829 830 831 832 832 833 833 833 834 835 836 836 835 835 835 835 834 833 833 832 831
784 785 785 786 787 789 790 792 794 795 796 796 796 797 797 797 797 797 797 798 798 799 800 801 803 803 803 804 807 808 808 809 809 809 809 810 813 815 816 816 816 816 816 816 816 816 816 817 817 817 817 818 819 820 821 822 822 823 823 823 824 825 826 827 829 830 831 832 833 833 834 835 835 836 837 837 836 836 836 836 835 834 834 833 833
786 787 788 788 789 791 793 794 795 795 796 796 796 797 797 797 798 798 799 800 800 801 802 803 803 804 804 806 808 809 810 810 810 811 811 812 814 815 815 816 816 816 816 817 817 817 817 817 818 818 819 819 820 821 822 823 824 824 824 825 826 827 828 828 829 831 832 832 833 834 835 835 836 837 837 837 837 837 837 836 835 835 834 834 834
789 790 790 791 792 793 794 795 795 795 796 796 796 797 797 798 799 800 801 802 802 802 803 803 805 805 806 807 809 809 810 811 812 812 813 813 814 815 815 816 816 816 817 818 817 818 819 819 819 820 820 821 822 823 823 824 825 826 826 827 828 828 829 829 830 831 832 833 834 834 835 835 836 837 837 837 837 837 837 836 836 836 835 835 835
792 793 792 793 794 795 795 796 796 796 796 796 796 797 799 800 801 802 803 803 804 804 804 805 806 807 807 808 809 810 811 812 813 813 813 813 814 815 815 816 816 817 818 818 819 820 820 820 821 821 822 822 823 824 825 826 827 827 828 828 829 829 829 830 831 832 833 834 834 835 835 836 836 837 837 837 837 837 837 836 836 836 836 836 836
793 794 794 795 796 796 796 797 797 797 798 798 798 799 800 802 802 803 804 805 805 806 806 807 808 809 809 810 810 811 812 813 813 813 813 814 815 815 816 817 817 818 818 819 820 821 821 821 822 822 823 823 824 825 826 827 828 828 829 829 830 830 830 831 832 833 834 834 835 835 836 836 837 837 837 837 837 837 837 837 837 837 837 837 837
795 796 797 798 799 799 799 799 799 800 801 801 801 802 802 803 804 805 806 806 807 808 808 809 810 810 811 811 812 812 813 813 813 814 814 815 816 816 817 818 818 819 820 820 821 821 821 821 822 822 823 824 824 825 826 827 828 828 829 830 831 831 831 832 832 833 834 834 835 836 836 837 837 837 838 838 838 838 838 838 838 838 838 838 838
797 798 799 800 801 801 801 802 802 802 803 803 804 804 805 805 806 806 807 808 809 810 810 811 811 812 812 813 813 813 814 814 814 815 815 816 817 817 818 818 819 820 821 821 821 821 821 821 822 822 823 823 824 825 826 826 827 828 828 830 831 831 832 832 833 833 834 834 835 836 836 837 837 837 838 838 838 838 838 838 839 839 839 839 839
799 800 801 801 802 803 803 804 804 805 805 806 806 807 807 808 808 809 810 810 811 812 812 812 813 813 813 814 814 814 814 814 815 815 816 817 817 818 819 819 820 821 821 821 821 821 821 822 822 822 822 823 824 824 825 825 826 827 828 829 830 831 832 833 833 833 834 834 835 836 837 837 838 838 838 838 838 839 839 839 840 840 840 840 840
801 802 803 803 803 804 804 805 805 806 807 807 808 809 810 810 811 811 812 812 813 813 814 814 814 815 815 815 815 815 815 815 816 816 817 818 818 819 819 820 821 821 822 822 822 822 823 823 823 822 822 822 822 823 824 824 825 826 828 829 830 831 832 833 833 834 834 835 836 836 837 837 838 838 839 839 839 840 840 840 841 841 840 840 840
803 804 804 804 805 805 806 806 806 807 808 808 809 810 811 811 812 813 813 814 814 814 815 815 816 816 816 816 816 816 816 817 817 817 818 819 819 820 820 821 821 822 822 823 823 823 824 824 824 823 822 822 822 823 824 825 826 827 829 830 831 832 832 833 834 834 835 835 836 837 837 838 838 838 839 839 840 840 841 841 841 841 841 841 841
805 805 805 805 806 806 807 807 807 808 809 809 810 811 811 812 813 813 814 815 815 815 815 816 816 816 817 817 817 817 817 818 818 819 819 820 820 821 821 821 822 822 823 823 824 824 824 824 825 824 824 824 825 825 826 827 828 829 830 831 832 832 833 834 834 835 835 836 836 837 838 838 839 839 840 840 840 841 841 841 841 841 841 841 841
807 806 806 807 807 807 808 808 809 809 810 810 811 811 811 812 813 813 814 815 815 815 816 816 816 817 817 817 817 818 818 818 819 819 820 821 821 821 822 822 822 823 823 824 824 825 825 825 826 826 826 826 827 827 828 829 830 830 831 832 833 834 835 835 835 835 836 836 837 838 839 839 839 840 840 840 841 841 841 841 841 841 841 841 840
808 808 808 808 807 808 809 809 809 810 810 810 811 811 812 812 812 813 814 814 815 816 816 816 817 817 817 818 818 818 819 819 819 820 820 821 822 822 822 823 823 823 824 824 825 825 825 826 827 827 827 828 828 829 830 830 831 832 833 834 835 835 836 836 836 836 836 837 838 838 839 839 840 840 840 840 841 841 841 841 841 841 841 840 840
809 809 809 809 809 809 809 809 810 810 810 811 811 811 812 812 813 813 814 814 815 815 816 816 817 817 818 818 819 819 820 820 820 821 821 822 822 823 823 823 824 824 824 825 826 826 827 827 828 828 829 829 830 830 831 832 833 834 834 835 835 836 836 836 836 836 837 838 838 839 839 839 840 840 840 840 840 840 840 840 840 840 840 840 840
809 809 809 810 810 810 810 810 811 810 811 812 812 812 812 813 813 814 814 814 815 815 815 816 816 817 817 818 819 820 820 821 821 822 823 823 823 824 824 824 825 825 825 826 827 827 828 828 829 829 829 830 830 831 832 832 833 834 834 834 835 835 836 836 836 837 838 838 839 839 839 839 840 840 840 840 840 840 840 840 840 840 840 840 840
810 810 810 810 810 810 810 811 811 811 812 812 812 813 813 814 814 814 814 814 815 815 815 816 816 816 817 818 819 820 820 821 822 822 823 823 824 824 824 825 825 825 826 826 827 827 828 828 829 829 830 830 831 831 832 833 833 833 834 834 834 835 836 836 837 837 838 838 839 839 839 839 840 840 840 840 840 840 840 840 840 840 840 840 839
810 810 810 810 811 811 811 811 812 812 812 813 813 813 814 814 814 815 815 815 815 815 815 816 816 816 817 817 818 819 820 821 821 822 823 823 824 824 824 824 825 825 826 826 827 827 828 828 829 830 830 830 831 832 832 833 834 834 835 835 835 835 836 836 837 838 838 838 839 839 839 839 840 840 840 840 840 840 840 840 840 840 840 840 840
811 811 811 811 811 811 812 812 812 813 813 813 814 814 814 814 815 815 815 815 815 815 816 816 816 816 817 817 817 818 819 820 821 822 823 823 823 823 823 823 824 825 826 826 827 827 828 828 829 829 830 830 831 831 832 834 834 835 836 836 836 836 836 837 837 838 838 839 839 839 840 840 840 840 840 840 840 840 840 840 840 840 840 840 840
812 812 812 812 812 813 813 813 813 814 814 814 814 815 815 815 815 815 815 815 815 815 816 816 816 817 817 817 817 818 819 820 821 822 822 823 823 823 823 823 824 825 825 826 826 827 828 828 829 829 829 830 831 831 832 833 834 835 836 836 836 837 837 838 838 839 839 840 840 840 840 841 841 840 840 840 840 840 840 840 840 840 840 840 839
813 813 813 813 813 814 814 814 815 815 814 815 815 815 816 816 815 815 815 815 815 815 815 815 816 817 817 817 818 818 819 820 821 822 822 823 823 823 823 823 824 825 825 826 827 828 828 829 829 829 829 830 830 831 832 833 834 835 836 836 837 837 837 838 839 840 840 840 840 841 841 841 841 840 840 840 840 839 839 839 839 839 839 839 838
814 814 814 814 815 815 815 815 815 815 816 816 816 816 816 816 816 816 816 816 816 816 816 816 816 817 817 817 818 819 820 821 821 822 823 823 823 824 824 824 824 825 826 826 827 828 828 829 829 829 829 830 830 831 832 833 834 835 836 837 837 837 838 839 840 840 840 840 840 840 840 840 840 840 839 839 839 839 839 839 839 838 838 838 838
814 815 815 816 816 817 817 817 817 817 817 817 817 817 818 818 817 817 817 817 817 817 817 817 817 817 817 818 819 820 821 822 822 822 823 824 824 824 825 825 825 826 826 826 827 827 828 828 829 829 830 830 831 832 833 834 835 836 837 838 838 838 838 839 840 840 840 840 839 839 839 839 839 839 839 839 839 839 839 839 839 838 838 838 837
816 816 817 817 818 818 818 818 819 819 819 819 819 819 819 819 818 818 818 818 818 818 818 818 818 819 819 820 820 821 822 823 823 824 824 824 824 825 825 825 826 826 826 826 827 827 828 829 829 830 831 831 832 833 834 835 836 837 838 838 839 838 839 839 839 839 839 839 838 838 838 838 838 839 839 839 839 839 839 839 839 838 838 837 836
817 817 818 818 819 819 819 820 820 820 820 820 820 819 819 819 819 819 819 819 819 819 820 820 820 821 821 821 822 823 823 824 824 824 824 824 825 825 825 825 825 825 826 827 827 828 829 830 830 831 832 833 833 834 835 835 837 838 838 839 839 839 839 839 838 838 838 838 838 838 838 839 839 839 839 840 840 839 839 839 838 837 837 836 835
818 818 819 819 819 820 820 820 820 821 821 820 820 820 820 820 820 820 820 820 821 821 821 821 822 822 822 823 823 824 824 824 825 825 825 825 825 825 825 825 825 826 826 827 828 829 830 831 832 833 833 834 834 835 836 837 838 838 839 839 839 838 838 838 838 838 838 838 838 839 839 839 840 840 840 840 840 839 839 838 837 837 836 835 834
Wind_Speed
30 30 30 27 28 29 27 26 26 24 23 23 23 23 23 23 22 21 22 22 21 22 22 21 20 20 20 19 17 16 15 15 14 14 14 14 14 13 12 12 11 10 10 11 11 10 10 9 9 8 6 6 7 7 8 9 11 12 12 12 11 10 11 10 10 10 12 12 11 9 8 7 8 9 10 10 9 8 7 6 4 3 3 5 10
29 30 30 28 27 29 28 27 27 26 25 25 24 24 24 23 22 22 23 23 22 23 22 21 21 21 21 20 19 17 16 16 15 15 15 15 15 14 13 12 12 11 11 11 11 10 10 10 8 7 7 7 7 7 9 9 9 11 12 14 15 13 13 14 13 12 12 13 13 11 8 7 9 11 11 11 9 8 6 6 6 5 4 4 8
30 30 30 28 28 28 28 28 28 27 27 27 26 26 25 24 23 23 23 23 22 23 22 21 21 20 20 20 20 19 18 17 17 16 17 16 16 14 13 13 13 13 11 11 12 12 11 10 8 8 9 9 8 9 11 11 10 10 11 13 16 16 15 16 15 14 14 14 14 12 9 7 9 10 9 9 8 7 6 6 6 6 6 5 6
30 30 30 29 28 28 29 29 29 29 29 28 28 27 26 25 24 24 24 23 23 23 22 22 22 20 20 20 19 19 19 19 18 18 19 18 17 16 14 14 14 13 13 13 14 14 13 11 10 9 9 9 9 11 13 13 14 13 12 12 14 16 15 16 16 16 14 14 14 14 10 8 9 10 8 7 7 7 6 5 6 7 7 6 6
30 30 31 30 29 29 30 31 30 30 30 29 28 27 26 25 25 24 24 23 24 24 23 23 23 22 22 22 21 20 19 20 20 21 22 21 20 18 16 14 14 16 16 15 14 14 15 14 13 12 10 10 11 13 14 15 15 14 13 11 13 15 16 17 17 17 15 14 14 13 11 9 9 8 7 6 6 6 6 5 6 7 7 7 7
30 30 31 31 30 30 31 32 32 32 31 29 28 27 26 25 25 25 24 24 25 25 25 26 26 24 23 23 23 22 21 20 20 22 24 23 21 19 16 14 16 19 19 17 15 15 15 15 14 14 13 14 15 16 17 16 15 14 11 11 13 16 17 17 16 16 15 14 13 12 11 10 9 8 7 6 6 5 4 4 6 7 7 7 6
31 31 32 33 32 31 31 32 32 32 31 30 29 28 28 27 27 26 26 25 25 26 26 27 28 27 25 23 22 21 19 17 15 16 19 20 19 17 15 13 15 18 19 18 16 15 14 14 14 14 14 15 15 16 17 17 17 16 13 13 15 18 18 17 16 15 14 13 13 12 11 9 8 7 6 5 6 5 3 3 5 7 7 7 7
35 33 32 33 34 33 32 33 33 32 31 30 30 29 29 28 28 28 27 27 26 26 25 27 29 29 26 24 22 19 17 14 12 12 15 16 16 16 15 15 14 15 16 16 14 14 14 14 14 13 14 14 14 14 16 17 17 17 16 15 17 19 19 17 15 14 13 13 13 13 11 9 7 6 5 5 5 3 2 2 3 4 4 5 7
35 34 33 33 35 35 33 32 33 32 32 31 29 29 29 29 29 29 29 29 29 27 25 25 28 29 28 25 22 19 18 16 15 15 15 16 16 17 17 17 16 15 14 13 12 13 14 15 14 12 12 12 13 13 14 15 15 16 16 16 17 18 18 15 14 13 13 13 14 13 12 10 7 5 5 5 3 2 1 1 1 1 2 4 6
33 33 34 35 37 36 34 33 32 33 33 32 30 28 28 28 28 29 29 30 31 29 25 24 26 28 27 25 22 20 20 20 20 20 19 19 19 20 20 20 18 17 16 15 14 13 14 15 15 14 12 12 11 12 12 12 13 13 13 14 15 16 16 15 14 13 13 14 14 13 13 10 7 5 5 4 3 2 1 2 3 3 4 5 5
34 32 34 37 37 36 34 32 31 32 33 32 32 31 28 25 26 28 29 29 30 29 25 24 26 26 26 24 23 22 21 21 21 21 21 20 21 22 23 22 20 19 18 17 15 14 13 13 14 14 13 12 11 12 11 10 9 11 13 14 15 15 16 17 16 15 15 15 14 13 12 10 6 5 6 5 4 4 3 3 4 5 5 5 4
35 33 34 36 37 36 35 32 30 31 31 31 32 32 27 23 22 24 25 25 27 27 25 24 25 24 24 23 23 23 23 22 21 20 19 19 19 21 23 22 21 20 18 17 15 14 12 11 12 12 13 12 12 13 12 9 9 13 15 16 15 14 14 15 15 15 15 14 13 11 10 8 6 6 6 6 5 5 4 3 4 4 5 6 6
34 34 34 35 37 37 35 32 29 28 28 28 29 30 27 24 21 21 21 22 24 25 24 24 23 23 22 22 22 23 23 22 21 20 18 17 17 18 18 19 19 19 18 17 16 15 13 12 12 11 12 11 11 12 12 12 12 14 15 15 14 12 12 14 14 14 13 12 11 10 8 7 7 7 6 6 5 5 5 5 5 6 7 8 8
32 34 35 36 37 37 36 34 31 27 26 25 26 26 26 23 21 20 21 22 22 22 22 22 21 22 22 21 21 20 21 22 21 20 19 18 18 16 16 17 19 19 18 17 16 14 13 12 12 11 10 11 12 12 13 13 14 15 15 14 13 11 12 14 14 13 12 11 10 9 8 7 6 6 6 6 6 6 7 8 8 8 8 7 5
31 31 34 35 37 36 34 33 30 28 26 25 24 24 23 21 20 19 19 19 19 20 20 20 20 21 21 21 20 20 20 20 20 19 19 18 18 17 16 17 18 19 18 16 15 13 12 11 11 10 9 10 13 14 14 14 15 15 15 14 12 11 12 13 12 10 8 8 8 8 7 5 4 5 5 6 7 8 9 9 7 6 6 3 4
27 29 31 33 34 35 34 32 31 28 26 24 22 21 21 19 18 17 17 17 18 18 18 19 20 20 20 20 20 20 20 19 19 18 17 17 17 16 16 17 18 18 17 16 14 12 12 11 12 11 11 10 12 15 16 17 16 15 15 14 13 11 10 9 9 8 5 5 5 5 4 3 3 4 5 6 7 8 8 7 6 5 4 5 6
15 19 23 25 26 26 25 24 22 18 15 12 9 10 14 17 17 18 17 17 17 17 17 17 17 17 18 19 20 20 19 18 18 17 16 15 15 14 14 16 17 17 17 15 13 12 11 10 10 11 10 10 12 15 16 18 18 16 15 15 14 11 8 7 8 7 5 5 5 4 4 3 2 2 3 5 5 6 5 3 3 4 4 6 5
7 6 8 12 14 13 14 15 14 11 11 9 9 11 13 15 15 15 15 15 15 16 16 15 15 16 16 17 18 18 18 17 16 15 14 14 14 13 14 15 16 17 16 14 12 11 11 10 9 8 8 9 10 13 14 17 18 18 16 15 13 11 10 9 9 7 7 7 6 6 6 5 3 2 2 4 4 3 2 2 1 1 2 5 6
6 5 4 6 9 12 13 15 15 13 13 14 15 16 14 12 11 11 11 12 13 14 15 14 15 15 16 15 16 17 17 16 15 14 13 13 13 13 13 14 15 16 15 13 13 12 11 11 9 8 8 8 8 10 13 14 15 16 15 13 13 14 14 11 8 9 10 10 10 9 9 7 6 6 8 9 8 7 7 7 5 3 4 5 5
9 9 8 7 9 13 12 13 14 14 12 12 13 13 12 10 9 8 8 9 11 12 12 13 13 14 15 15 15 15 14 14 13 13 13 13 13 13 13 14 14 14 14 14 14 13 11 10 9 8 8 8 8 9 11 12 12 13 14 14 16 17 15 11 9 9 10 10 11 11 10 9 7 8 10 11 11 12 12 13 11 9 9 8 7
9 12 10 8 10 13 13 12 13 13 12 11 11 11 11 9 8 8 8 8 9 9 10 11 13 13 13 13 12 11 10 9 9 10 11 11 12 12 13 14 14 14 13 13 12 11 10 9 8 8 8 9 9 9 11 11 11 12 12 12 15 16 13 11 9 8 8 8 9 11 11 9 8 8 9 10 10 11 12 13 13 12 12 11 11
12 15 15 13 13 14 14 12 11 11 11 11 11 10 10 9 9 10 9 8 8 9 8 10 14 15 14 13 12 10 8 6 5 5 6 7 9 10 12 14 14 14 13 13 12 12 10 9 8 8 9 9 9 9 9 9 9 8 8 8 9 11 12 12 9 9 8 6 8 11 11 9 8 8 9 10 10 9 10 10 10 10 11 11 11
13 15 17 17 15 14 15 14 12 10 9 10 9 8 7 7 8 9 9 9 10 10 9 10 15 19 18 15 12 10 8 6 4 3 3 3 5 7 8 10 11 13 13 13 13 12 10 9 9 9 9 8 7 5 5 5 4 3 3 2 4 6 11 13 12 10 8 7 9 11 10 7 7 8 9 10 10 11 10 9 7 7 7 8 8
16 18 18 18 17 17 16 15 14 11 9 9 9 7 5 4 6 7 7 9 11 12 11 12 14 16 19 18 14 11 9 7 5 4 3 3 3 3 3 5 8 10 11 10 10 10 9 9 9 8 8 6 4 2 1 3 3 7 9 9 11 13 15 16 14 12 10 9 10 10 9 7 8 10 11 11 11 11 11 10 7 7 9 10 10
19 20 19 19 19 19 18 17 16 14 12 11 10 9 8 6 5 4 3 4 6 8 11 15 14 12 16 17 13 10 9 8 6 6 5 4 3 2 3 4 5 7 8 8 8 8 7 7 6 5 4 1 1 5 8 8 7 10 12 14 14 15 15 14 12 11 10 10 10 10 10 9 10 11 11 10 10 12 13 12 10 10 12 13 13
19 20 20 20 19 19 19 19 18 16 15 14 12 11 10 9 9 9 7 7 9 10 14 17 15 12 15 16 12 9 9 9 8 7 6 5 4 3 3 3 3 3 4 4 4 4 4 3 3 2 2 5 7 10 12 12 11 11 12 13 14 14 14 13 11 11 10 10 10 10 9 9 9 9 7 8 11 12 13 13 11 10 11 12 14
19 19 20 19 19 18 19 19 18 17 15 13 12 11 10 11 13 14 13 13 14 15 16 17 16 15 14 13 11 10 9 9 9 8 7 6 4 4 3 3 2 2 3 4 3 3 3 3 3 5 7 9 10 12 14 13 11 11 12 12 12 11 11 9 9 10 11 11 10 8 6 6 6 6 6 8 9 10 11 13 12 11 10 10 12
19 20 20 20 19 19 19 19 19 18 16 15 14 13 14 13 14 14 13 12 11 12 13 13 13 14 13 12 11 11 10 9 10 9 9 9 7 6 5 5 5 5 6 6 5 4 5 5 5 7 8 9 11 13 13 11 10 10 11 10 10 10 9 9 10 10 10 9 7 6 5 5 6 6 6 8 8 8 9 11 11 11 9 9 11
20 21 22 21 20 20 20 20 20 20 19 17 16 16 16 15 14 14 12 10 8 8 9 10 10 12 12 12 11 11 10 9 9 9 9 9 9 8 7 7 6 6 7 6 6 6 6 5 4 5 6 7 9 10 9 8 8 9 10 10 11 11 12 13 13 12 10 9 9 9 10 11 11 9 8 8 9 8 8 9 9 9 9 9 11
20 20 20 20 20 20 20 21 20 20 20 19 19 19 19 18 17 17 16 15 13 12 12 13 12 11 12 12 11 10 9 8 8 7 7 7 6 6 6 7 6 6 7 7 6 6 6 5 4 4 4 5 7 8 6 5 7 7 9 11 12 12 12 13 13 12 12 12 13 13 13 13 13 11 9 9 9 8 8 9 9 9 9 10 11
21 20 19 19 19 19 21 22 22 22 22 22 22 22 21 20 20 19 18 18 18 17 16 16 14 12 12 12 10 9 8 7 6 6 5 4 3 3 3 4 5 6 7 7 7 7 7 6 4 3 2 4 6 6 5 4 4 4 7 11 12 12 12 12 12 11 12 13 13 12 11 11 10 9 8 8 8 8 8 8 9 9 10 10 12
21 20 19 19 19 20 21 22 22 23 22 22 22 21 21 20 18 17 16 15 15 15 14 13 12 11 10 8 7 7 6 5 4 3 2 1 1 2 2 3 5 6 7 8 8 8 9 8 5 3 1 3 6 6 6 5 2 1 5 11 13 12 12 12 11 11 11 12 11 9 8 8 7 6 6 6 6 6 7 8 9 9 9 10 11
20 19 18 18 18 18 19 19 19 19 19 19 19 18 18 18 16 14 12 11 11 11 10 10 9 8 7 6 5 4 3 3 2 2 1 2 2 3 3 4 6 7 8 7 7 8 10 9 6 3 2 5 7 7 8 7 6 6 8 13 15 14 13 13 12 10 10 9 9 8 7 6 5 5 5 5 5 5 6 7 8 8 9 10 11
15 14 14 14 14 15 15 15 15 15 15 15 15 15 15 15 15 13 11 10 9 8 8 8 7 6 6 5 5 4 4 3 2 3 3 4 5 4 5 6 7 9 8 6 7 8 9 9 6 3 6 9 10 10 11 11 10 9 14 18 17 15 14 13 12 11 10 9 8 7 6 5 4 4 4 4 4 5 5 6 7 7 8 9 9
13 12 12 12 12 11 10 10 10 9 10 11 12 12 12 12 12 12 11 10 9 8 7 7 7 7 7 7 7 7 6 6 6 7 7 8 7 7 8 8 9 10 8 5 6 7 8 8 7 4 4 8 11 12 12 11 11 16 21 20 17 15 14 12 11 11 10 9 7 7 6 5 4 4 3 4 4 5 5 5 6 7 7 7 6
12 12 12 12 12 11 11 10 8 7 7 8 9 9 9 9 9 9 9 9 9 8 8 7 7 7 8 7 7 7 8 8 8 9 10 10 10 10 10 9 9 8 6 4 5 6 5 4 4 5 3 2 6 9 11 13 17 20 20 18 16 15 14 12 11 10 9 8 6 6 5 4 4 4 4 4 4 4 4 5 5 6 5 5 5
12 11 10 10 9 10 11 11 10 8 8 7 7 7 7 6 6 7 8 8 8 8 8 8 8 8 8 8 7 7 8 8 8 9 10 11 11 10 9 8 7 6 3 4 6 5 3 4 6 6 6 7 9 12 15 17 19 18 17 15 15 14 12 11 10 9 7 7 6 5 4 4 4 3 3 3 4 3 3 4 5 4 4 4 6
11 10 8 7 6 7 8 9 8 7 6 5 5 5 7 7 7 7 7 6 6 6 7 8 8 8 8 8 7 7 8 8 9 10 11 11 10 9 9 7 5 3 1 2 4 3 3 5 6 7 7 8 10 13 14 15 15 15 14 13 13 11 10 9 8 7 7 6 7 6 5 5 5 4 3 3 3 2 2 3 3 3 3 5 5
11 10 9 8 8 7 7 6 5 4 4 4 4 4 5 7 8 8 7 5 5 4 4 5 6 7 7 7 6 7 8 9 10 11 11 10 9 9 8 6 5 4 2 1 2 4 5 7 7 7 8 9 10 12 13 13 13 12 11 11 10 9 8 8 8 7 7 7 8 8 6 6 5 4 3 2 2 1 2 2 2 2 4 4 4
9 10 11 11 11 10 9 8 8 7 7 6 6 5 5 6 6 5 5 4 4 3 2 1 2 3 3 4 5 6 7 9 10 10 8 7 6 6 6 5 5 4 4 4 5 6 8 9 9 10 10 11 11 12 12 12 12 10 9 8 8 7 7 7 7 7 8 8 8 8 6 6 5 4 2 1 1 2 2 1 1 2 3 3 2
7 7 8 9 10 10 10 11 11 11 11 10 10 10 9 9 8 6 4 2 2 2 1 1 1 1 1 1 2 3 4 5 7 7 5 3 2 2 3 3 2 1 2 5 6 6 8 9 9 10 11 11 12 12 13 12 11 10 9 8 8 7 8 7 7 8 8 8 7 7 6 5 4 2 1 2 2 2 1 1 2 2 3 3 3
9 7 5 5 6 7 8 10 10 11 11 10 9 9 10 10 9 9 8 8 7 6 5 5 4 2 1 3 4 3 3 2 3 3 1 2 3 2 5 6 6 4 3 4 5 6 8 9 10 10 11 12 12 12 12 11 10 10 9 9 9 9 9 9 9 9 8 8 8 7 6 5 4 3 3 3 3 3 3 3 3 3 4 4 5
11 10 9 7 6 7 9 10 10 10 11 11 10 9 9 8 8 7 7 7 8 8 7 6 5 4 3 0 4 6 6 4 3 2 1 3 4 3 3 8 9 8 6 5 6 7 8 10 11 11 11 12 11 11 10 10 9 9 9 9 9 10 10 10 10 9 9 9 9 8 7 6 5 4 4 4 3 3 3 2 2 3 5 6 6
10 11 11 12 11 11 12 11 11 11 11 11 11 11 10 10 9 9 8 7 6 6 6 6 5 4 3 2 2 6 7 6 4 3 1 3 4 5 3 4 9 10 9 7 7 9 11 12 13 13 12 12 12 12 12 10 7 6 7 8 9 9 9 8 8 7 7 8 8 7 6 5 4 3 3 2 2 1 2 2 3 4 5 7 8
10 11 12 12 12 13 13 12 12 11 11 10 11 11 11 11 11 11 10 9 8 6 5 5 4 3 1 1 0 3 6 7 7 5 3 5 6 5 3 2 6 9 9 8 9 11 13 14 15 15 14 14 13 12 10 7 4 3 4 4 4 4 5 6 6 6 5 5 5 5 4 3 2 2 1 1 1 1 2 3 4 5 6 7 9
11 13 14 13 13 14 14 13 12 12 12 12 12 12 12 12 12 12 12 12 12 11 9 7 6 3 1 1 2 2 3 5 6 6 4 3 3 3 3 2 4 7 8 7 8 11 14 15 15 15 15 15 13 11 8 6 5 4 3 2 2 4 6 8 8 7 5 4 4 3 3 3 2 1 1 1 1 2 2 4 4 5 7 8 9
11 12 13 14 14 14 14 14 13 13 14 14 15 15 15 14 14 14 15 14 14 14 13 12 9 7 4 1 1 1 2 2 2 2 3 6 7 7 7 5 4 5 6 6 7 10 13 15 15 15 15 14 12 9 8 8 7 6 5 6 7 8 9 8 6 4 3 3 2 3 3 4 3 2 1 2 3 4 5 5 5 6 7 8 9
11 11 12 12 12 13 14 14 14 15 15 15 16 17 17 17 17 16 16 15 16 16 15 15 13 12 10 9 9 9 10 10 9 10 10 9 8 7 6 4 4 5 7 8 10 12 15 17 16 15 14 12 9 9 10 10 9 8 9 9 9 9 7 5 3 2 3 3 4 4 4 3 1 3 4 5 6 5 5 5 5 7 8 9 10
11 11 11 11 11 12 12 12 13 13 14 15 16 17 16 17 17 16 16 16 16 17 17 18 18 17 16 16 14 13 12 12 11 10 9 7 6 5 4 4 3 4 7 9 12 15 16 16 15 13 11 10 10 10 10 9 8 9 10 9 8 6 4 2 3 4 4 4 3 2 2 3 5 6 6 6 6 6 6 7 7 8 9 9 11
10 10 10 10 10 11 11 10 10 10 11 12 13 13 13 14 15 15 16 16 16 17 17 17 16 16 15 15 14 12 11 10 9 9 8 7 7 6 5 4 4 4 6 9 13 15 14 14 14 13 12 11 11 10 9 9 9 9 8 6 4 3 3 4 5 4 3 1 2 4 6 7 7 7 7 7 7 7 8 8 8 9 10 10 12
11 10 10 10 10 10 10 10 9 9 9 10 11 12 12 13 14 16 17 17 17 17 16 15 14 14 14 13 12 11 11 10 10 9 9 8 8 7 6 6 6 7 8 11 13 15 15 15 15 13 10 9 8 9 10 9 8 7 5 5 4 4 5 5 4 3 3 4 5 6 7 7 6 6 7 7 8 8 8 8 8 9 10 11 13
Wind_Direction
195 197 198 199 201 202 202 202 202 203 201 202 206 208 208 209 211 211 209 210 212 211 212 215 216 218 219 219 221 223 224 224 221 221 226 230 233 239 244 243 249 257 258 255 254 257 262 273 291 293 275 269 266 262 269 273 277 283 273 254 252 258 250 231 221 249 278 279 269 275 278 270 277 286 287 290 291 283 269 261 263 266 264 256 250
196 198 198 199 201 203 203 202 203 205 205 206 209 210 210 211 211 212 213 215 216 216 217 218 218 217 216 217 220 222 224 225 224 225 230 233 234 238 244 246 250 257 261 256 251 251 255 264 283 285 262 258 256 247 251 255 262 277 275 260 257 257 249 238 227 236 264 271 265 264 260 257 274 283 282 286 288 279 266 257 248 239 235 257 259
195 197 198 200 202 203 204 203 203 205 205 206 209 210 211 211 211 212 214 217 218 217 218 220 219 217 215 216 219 220 223 226 228 231 232 232 233 235 239 242 247 253 255 250 247 248 251 257 271 276 260 247 238 231 230 225 228 246 257 258 261 260 250 241 234 236 254 266 264 260 257 260 274 279 281 289 293 286 275 261 244 233 233 252 259
194 196 197 200 202 204 205 205 204 205 206 207 210 211 211 212 214 214 213 215 218 218 219 219 218 216 216 218 220 222 222 224 229 232 232 233 234 236 239 241 242 244 246 249 250 248 248 250 256 265 266 251 234 224 220 223 233 236 232 238 252 258 251 241 239 243 250 255 254 254 258 266 273 277 283 290 291 284 274 256 240 235 240 253 254
194 196 198 199 201 203 205 206 205 206 208 209 212 212 211 213 217 217 215 216 218 218 219 217 215 215 218 221 224 224 223 225 230 234 235 235 237 240 242 243 243 242 246 252 251 246 248 252 249 244 246 245 236 229 231 236 237 233 229 229 238 247 246 239 238 242 246 247 244 243 246 254 264 273 279 288 290 283 270 249 238 237 243 254 252
191 195 198 199 201 204 205 206 207 208 210 211 212 212 211 213 215 215 216 219 220 219 219 218 217 218 220 222 224 227 230 232 236 241 240 236 235 236 239 244 246 244 248 253 254 250 252 258 255 243 237 241 243 244 248 250 246 242 238 228 226 232 235 234 235 240 245 247 245 242 243 249 259 266 270 284 295 290 273 249 238 234 235 241 244
189 193 198 200 202 205 206 206 207 208 210 212 212 211 212 214 215 214 213 216 219 221 222 222 222 221 220 220 223 227 232 232 234 238 235 229 226 228 234 246 250 248 250 255 256 253 251 254 256 251 247 249 250 249 248 246 246 246 241 230 227 229 231 232 235 240 243 241 240 242 244 246 252 255 261 284 296 296 285 246 225 224 230 237 243
189 190 196 201 203 205 207 206 207 209 210 212 213 214 217 218 219 218 215 213 216 220 223 224 222 220 218 219 222 224 225 226 228 228 225 223 225 230 237 246 251 248 248 252 253 252 252 255 255 254 255 256 257 255 249 244 239 236 232 230 229 230 232 233 234 237 239 237 236 238 239 240 243 246 254 271 281 285 277 224 205 213 233 243 245
191 189 194 201 204 206 207 207 208 210 211 212 213 215 219 222 223 223 219 215 215 219 222 222 218 216 216 217 219 221 224 227 230 233 234 236 241 243 242 244 246 243 241 245 250 253 258 263 261 257 257 256 257 259 257 251 243 236 231 228 228 232 236 235 233 233 232 232 235 234 234 237 238 241 247 252 267 290 280 241 253 268 272 265 257
193 191 194 200 204 205 206 208 209 211 212 213 212 212 218 224 226 225 222 217 216 218 219 215 211 209 210 212 217 223 229 231 231 232 235 240 246 244 237 237 241 243 245 248 251 255 262 266 264 259 257 255 254 259 260 255 248 243 240 237 236 242 246 242 237 232 227 229 234 234 233 236 235 236 240 240 255 283 284 275 292 303 303 296 284
195 196 197 199 201 201 203 207 209 210 211 213 213 211 214 220 222 221 220 217 215 215 213 210 207 208 211 216 221 226 229 229 230 231 234 239 245 239 231 232 238 244 249 251 251 256 264 267 264 257 250 247 247 248 251 254 246 236 234 236 237 242 249 250 245 236 228 230 235 235 235 240 239 229 233 238 240 253 270 280 288 297 302 298 295
198 201 201 200 199 198 199 202 205 207 210 212 211 208 206 207 207 209 211 210 209 207 206 207 208 211 216 219 222 224 226 228 229 231 234 237 237 231 227 230 235 241 246 248 251 258 264 268 268 259 251 248 245 241 240 241 237 232 232 233 233 235 243 250 251 246 238 236 237 237 238 241 235 228 236 243 241 248 261 271 283 293 298 294 292
199 203 203 200 198 197 198 199 199 201 204 206 205 201 199 198 195 195 197 198 199 201 203 207 210 212 215 217 220 223 225 229 231 231 231 226 221 220 224 231 235 238 242 244 249 255 260 265 267 264 256 246 234 231 231 228 228 232 236 236 233 231 233 239 246 248 246 243 241 241 242 237 232 238 249 251 252 258 261 275 292 291 291 293 290
198 200 199 197 197 196 198 199 199 198 197 197 196 194 195 196 193 190 190 192 196 201 206 211 214 217 220 222 224 225 226 229 230 230 228 224 221 221 225 230 236 240 243 244 247 252 258 262 262 260 254 242 231 231 234 232 230 232 235 234 230 227 230 234 239 243 243 245 242 239 238 234 234 246 255 260 268 270 270 281 290 289 293 292 273
194 196 195 196 197 196 196 197 197 197 196 194 193 193 194 196 196 195 195 196 200 205 209 215 218 221 223 224 225 226 227 227 228 228 229 228 228 227 226 228 235 240 243 245 247 253 258 259 256 253 249 243 237 237 238 236 232 233 239 238 228 224 231 233 233 237 242 241 236 230 225 225 233 244 254 265 272 274 278 281 277 280 289 254 200
195 195 195 196 197 197 197 197 197 198 196 194 193 190 191 195 199 202 203 204 207 210 212 216 219 220 220 220 220 222 222 223 223 224 227 226 226 227 227 228 232 237 241 244 249 255 259 257 254 253 253 248 235 230 234 237 235 237 242 239 228 229 241 236 225 227 232 220 212 211 209 218 237 249 264 272 274 279 280 269 259 269 256 189 171
209 205 201 200 201 199 193 187 185 182 172 169 175 181 188 197 201 203 205 205 208 212 214 216 218 218 217 216 216 217 218 219 220 221 221 221 224 225 224 225 229 234 239 244 250 256 256 254 254 254 255 248 232 226 232 239 245 247 244 240 237 238 242 228 211 209 207 195 189 188 187 195 218 246 277 287 293 296 284 253 254 268 228 176 157
258 248 218 207 201 190 177 168 164 150 136 149 187 200 199 202 203 202 204 207 210 214 217 217 217 218 217 216 216 217 218 218 217 218 217 219 221 221 220 223 229 235 239 242 245 248 247 246 249 251 252 246 236 233 236 242 248 249 244 243 242 229 212 204 197 190 185 179 169 159 148 134 125 104 36 4 353 343 352 52 53 256 171 158 156
257 258 249 213 178 169 180 186 179 167 161 175 193 199 198 199 200 201 206 214 218 220 219 217 216 215 215 216 218 221 222 223 221 218 217 220 222 223 222 224 231 237 239 237 236 238 239 241 244 248 251 250 242 234 236 243 246 244 237 233 231 222 210 204 198 190 185 172 154 143 127 110 97 75 57 47 46 50 54 56 53 61 90 118 144
236 224 234 234 190 172 176 177 165 160 168 176 180 185 190 192 195 203 211 215 218 221 222 219 214 212 212 213 216 219 222 226 226 222 221 224 229 231 229 228 232 236 235 235 238 239 239 242 246 247 246 248 243 234 235 243 245 240 231 220 219 218 210 204 208 201 184 162 143 132 118 106 92 69 60 60 62 65 63 57 52 58 75 87 89
192 187 191 199 185 166 154 153 154 156 169 179 180 186 189 181 178 189 201 207 206 206 211 211 203 197 196 196 198 201 204 210 216 217 221 227 231 234 234 231 230 231 231 235 240 243 246 251 254 250 241 236 235 232 233 238 241 244 242 230 225 225 215 207 205 184 157 144 138 132 125 115 99 77 68 67 68 69 64 55 51 57 66 70 67
151 157 153 151 157 150 137 138 146 151 164 177 184 189 186 176 177 184 186 186 185 184 194 198 188 179 175 175 173 170 168 174 188 203 221 236 241 242 239 236 232 230 229 232 235 242 251 257 258 258 248 238 238 240 245 251 251 252 258 248 234 231 224 210 185 151 143 156 153 142 135 120 96 78 76 75 71 66 59 53 54 60 61 57 54
129 128 125 126 130 126 121 124 129 137 156 169 172 175 177 185 202 206 201 196 193 196 202 193 178 169 163 160 158 158 159 161 168 186 214 239 250 254 248 240 238 236 236 239 241 244 249 248 248 253 249 247 260 272 269 267 248 200 193 165 137 170 190 184 164 148 148 148 137 131 124 109 86 78 81 79 70 61 54 49 49 57 59 49 39
103 100 98 103 105 103 106 112 119 129 140 146 145 140 136 163 200 212 219 217 213 213 204 186 173 161 151 148 150 156 163 163 162 176 198 209 221 254 255 235 230 232 235 240 242 242 244 241 242 248 251 261 302 4 140 188 152 126 120 117 123 142 159 161 155 150 138 120 111 107 99 91 90 90 87 81 70 59 47 39 43 62 71 65 56
95 95 96 98 100 105 109 110 114 121 124 121 120 120 125 142 161 172 198 208 199 191 175 168 169 158 141 136 134 136 142 143 146 159 174 181 176 194 234 231 224 225 228 232 235 238 243 243 243 253 262 266 94 120 142 151 141 125 118 118 125 135 143 145 145 139 121 102 95 95 91 88 93 96 92 79 65 55 45 44 62 82 80 72 68
95 96 99 101 104 109 111 110 111 112 111 111 115 120 125 124 113 104 101 107 115 120 131 142 149 142 127 121 117 116 119 122 130 140 146 149 151 165 204 226 233 231 225 218 215 219 223 227 228 205 140 132 134 137 139 139 135 127 119 117 120 123 126 129 132 127 114 102 98 98 94 91 96 103 97 71 57 54 50 48 60 75 69 61 63
97 96 99 101 104 107 108 108 110 111 111 115 119 117 114 109 102 98 97 100 105 113 121 130 135 130 122 119 120 118 111 108 110 114 119 126 131 137 147 152 145 140 142 138 138 149 152 152 155 146 139 142 141 135 130 129 128 123 117 114 114 114 114 122 128 125 115 107 106 106 102 105 117 119 95 65 55 57 53 45 46 54 48 42 51
98 98 99 100 101 104 107 109 111 111 112 113 111 103 97 97 95 92 92 96 106 118 126 129 132 132 129 128 130 126 116 109 107 107 108 107 106 110 113 112 114 118 121 120 117 115 117 123 135 142 142 144 143 137 131 129 128 129 129 123 116 114 116 121 127 128 123 117 116 117 115 123 135 129 96 70 63 61 51 43 44 45 33 27 38
99 100 103 104 105 107 108 109 109 109 109 108 102 90 83 84 87 85 84 87 96 112 121 119 121 128 128 127 128 125 120 116 113 111 108 102 98 97 93 90 101 113 112 108 103 100 96 96 113 136 145 151 152 150 143 129 123 134 143 139 130 127 127 125 126 132 135 131 126 124 121 118 120 119 105 89 79 65 50 47 49 44 35 34 42
99 99 101 102 105 106 106 105 105 105 105 104 100 91 83 82 85 85 83 83 85 89 94 97 100 105 108 109 111 111 110 110 107 102 96 91 89 86 80 79 90 104 105 99 93 89 79 71 85 113 132 151 162 166 158 129 114 129 145 146 143 140 136 132 132 135 136 132 128 126 124 118 115 113 105 94 80 63 49 47 46 41 39 39 38
96 95 97 100 103 104 104 104 104 103 104 104 101 98 94 89 85 85 84 83 83 84 85 87 89 89 91 96 101 103 103 100 94 86 80 77 78 78 82 89 100 109 111 104 92 76 59 54 70 95 126 163 173 179 181 157 124 132 154 158 154 148 141 138 138 139 139 136 132 127 121 115 110 103 92 81 70 57 49 44 41 40 41 38 31
95 96 99 102 104 105 106 107 108 107 107 107 104 102 100 95 90 86 84 82 82 82 84 87 88 87 87 90 95 102 105 103 99 95 88 86 103 117 125 129 127 127 125 113 92 64 46 44 45 24 318 228 212 210 205 198 196 216 189 175 164 152 143 143 146 148 146 141 136 129 121 111 105 95 81 68 56 50 49 45 41 40 37 32 27
98 102 105 107 108 109 110 110 111 112 113 113 112 110 107 104 102 98 92 87 84 84 84 87 88 87 88 90 95 107 120 128 136 149 158 147 140 136 140 145 143 138 133 114 79 49 38 35 27 357 288 250 239 226 219 231 258 257 209 181 166 154 150 154 159 159 154 148 142 137 127 114 105 93 77 63 53 52 52 46 37 31 28 25 26
98 101 104 107 111 114 114 113 113 113 113 113 114 113 112 111 112 113 112 109 103 97 93 90 88 85 87 92 99 108 119 129 135 136 136 132 128 125 132 137 139 137 129 102 61 43 36 29 12 316 247 239 237 231 234 250 253 215 182 170 163 159 160 164 166 163 157 153 147 138 128 120 107 84 68 69 73 70 62 48 35 28 26 25 29
105 107 107 107 109 112 115 119 122 123 122 119 117 115 115 117 118 117 118 119 121 121 114 102 94 92 95 99 99 98 100 107 113 118 122 121 117 119 123 127 135 140 130 88 48 35 28 23 14 347 267 238 233 233 236 234 206 177 168 165 163 164 165 165 162 158 153 149 143 136 131 125 107 89 92 104 94 75 61 49 35 26 24 29 38
103 105 108 109 109 109 110 113 121 136 143 136 127 123 122 125 126 125 120 115 115 119 121 116 108 106 107 108 104 98 98 104 111 118 121 118 114 115 116 120 132 140 127 65 28 19 19 39 61 55 59 167 196 202 197 181 169 167 167 167 167 168 169 167 163 156 151 147 143 141 137 122 105 109 124 113 88 72 61 46 31 23 26 36 38
91 90 95 98 101 107 111 112 113 122 133 136 139 144 147 150 150 143 132 119 106 101 106 110 110 110 113 112 107 100 98 102 112 120 121 116 109 105 104 106 117 126 106 34 17 20 49 120 123 107 104 125 148 160 163 163 164 167 168 169 170 171 169 166 162 157 154 152 151 151 145 132 130 146 146 114 97 91 65 34 26 32 39 32 22
88 83 81 77 78 93 111 117 113 109 109 106 110 132 152 167 173 165 151 136 116 100 100 105 107 108 108 106 104 100 96 98 111 121 121 112 101 94 89 87 91 103 89 14 18 42 117 145 144 138 137 142 151 159 163 164 166 167 166 165 167 167 164 161 160 158 157 157 156 156 154 153 160 172 158 126 116 101 49 24 29 41 25 12 12
89 85 80 80 83 89 101 113 111 97 81 67 66 97 132 153 166 168 163 154 139 122 111 112 113 111 106 102 103 106 103 103 111 121 119 108 97 90 81 71 63 60 61 84 107 120 132 141 147 149 149 148 150 155 158 159 157 156 156 157 158 160 160 158 155 152 152 156 161 164 167 166 164 160 145 132 124 89 58 48 42 25 8 5 27
89 87 83 85 91 96 98 99 98 94 88 84 88 102 115 129 149 167 182 189 181 169 159 138 125 122 119 111 104 105 110 113 118 124 122 111 104 101 91 80 71 63 75 107 131 133 128 128 134 138 139 139 139 141 144 147 145 144 147 151 153 154 153 150 148 151 156 163 167 170 170 169 166 165 166 147 109 85 73 59 35 19 13 19 52
80 85 88 92 97 100 100 98 96 91 88 88 91 91 91 94 102 112 123 144 162 161 137 9 350 327 264 210 144 116 116 121 125 128 122 98 93 138 144 139 144 150 133 138 144 145 142 140 142 144 145 144 144 144 144 144 143 145 149 155 161 165 163 157 155 158 162 164 167 166 166 167 167 164 132 110 103 105 114 101 83 61 47 53 72
71 69 75 93 104 101 97 98 95 84 76 78 80 78 77 80 82 85 91 97 101 100 88 77 73 64 324 247 220 187 162 154 156 156 132 24 348 278 225 209 212 231 231 196 177 170 168 165 163 162 159 154 152 152 152 154 159 163 161 157 155 159 160 159 160 162 160 157 156 157 156 154 147 133 128 130 135 138 130 105 80 65 63 73 74
73 68 71 85 98 97 97 102 99 83 72 70 70 66 64 61 57 60 76 92 96 96 91 83 77 71 58 257 219 209 202 197 199 215 274 346 349 331 253 222 220 225 231 221 200 186 181 174 166 163 161 158 156 154 146 142 147 153 152 145 140 142 149 154 158 160 159 157 157 157 152 146 142 140 141 143 139 129 117 91 70 72 73 67 55
77 81 86 91 92 93 95 97 94 87 81 77 71 65 63 64 61 59 65 75 85 94 90 73 55 51 54 59 200 209 210 207 208 219 274 339 344 348 332 247 226 219 219 218 205 192 186 179 170 162 158 156 155 148 138 131 131 136 138 136 132 134 141 150 156 162 166 165 161 155 145 136 133 127 123 125 126 124 108 86 74 67 55 40 28
88 93 96 96 92 90 90 89 86 85 84 79 74 70 70 72 72 68 66 67 72 79 74 54 40 32 14 6 188 213 217 215 217 232 284 327 330 333 339 272 226 214 210 209 200 190 185 178 172 168 163 160 157 151 143 142 152 152 142 135 130 129 133 136 140 149 154 148 138 128 112 94 80 74 77 102 141 138 109 85 64 43 29 20 10
96 94 93 94 92 88 88 87 85 83 80 78 78 78 77 76 77 76 74 74 75 75 73 69 71 82 123 239 238 236 232 230 239 261 293 339 22 61 80 125 193 197 195 191 186 182 180 178 177 177 173 166 161 158 156 161 175 179 177 176 158 139 130 128 130 132 123 104 88 74 50 29 22 18 1 14 107 107 81 63 46 30 19 9 360
99 94 90 91 89 86 86 87 86 84 82 81 81 80 80 81 83 83 82 80 78 76 76 78 85 95 107 132 160 136 133 149 170 156 122 116 111 103 98 109 148 179 190 192 188 186 186 187 188 183 174 166 160 157 153 152 155 157 155 150 146 141 137 135 134 124 94 62 27 358 341 328 304 254 201 116 101 93 77 62 45 23 10 1 355
103 100 95 91 88 85 84 85 85 84 83 82 81 80 80 81 81 81 81 79 78 79 82 85 91 97 103 105 109 114 118 119 118 116 118 117 110 102 101 113 147 185 200 198 192 189 188 187 184 178 171 166 157 145 139 139 141 146 147 144 141 138 135 129 110 48 9 347 331 324 320 310 247 160 132 109 95 82 62 46 28 12 5 359 354
104 104 98 93 89 86 84 85 84 83 83 84 82 80 77 76 76 78 80 79 79 84 89 93 95 99 103 108 112 115 116 113 111 111 113 109 102 101 107 116 144 184 195 190 185 183 183 181 178 172 164 154 144 140 141 144 147 149 147 141 132 124 109 66 14 352 337 327 329 359 69 100 109 106 93 78 66 52 37 27 16 7 2 354 348
106 106 102 98 94 90 87 86 84 82 82 82 78 72 70 71 77 83 86 85 85 90 94 97 99 102 105 108 109 109 108 107 106 106 106 105 102 104 108 113 132 165 182 184 183 183 179 171 163 154 145 140 137 140 144 146 145 144 138 125 107 76 33 12 2 353 349 18 101 106 103 98 92 85 72 59 47 34 22 13 4 357 351 344 339
115 114 109 106 103 99 96 94 91 86 80 76 72 71 73 79 86 91 91 89 90 93 95 97 102 106 108 108 108 106 104 104 104 103 103 104 104 106 111 123 141 155 163 168 170 168 162 154 148 142 139 137 136 136 137 136 132 123 106 82 63 44 32 30 38 58 91 113 118 113 104 92 80 71 59 45 31 18 8 2 356 350 344 339 335